Location: Crescent
(42.8242°N, 73.7329°W)
Time: 21:07:25
(UTC+00:00)

SR - Pass Details

Date: 18 February 2026
Orbit: 573 x 848 km, 66.7° (Epoch: 6 March)

Event Time Altitude Azimuth Distance (km) Brightness Sun altitude
Rises 16:22:37 0° 340° (NNW) 3,042 ? 34.7°
Reaches altitude 10° 16:25:41 10° 1° (N) 2,181 ? 34.8°
Maximum altitude 16:28:55 17° 42° (NE) 1,804 ? 35.0°
Drops below altitude 10° 16:32:17 10° 82° (E) 2,294 ? 35.1°
Sets 16:35:37 0° 102° (ESE) 3,273 ? 35.2°
